[[{"header":{"parameterUnit":"m.s-1","parameterCategory":2,"la1":30.2991,"la2":30.254,"lo1":-89.0895,"lo2":-89.0444,"dy":0.0017,"dx":0.0017,"nx":28,"ny":28,"refTime":"2024-03-25T21:00:00:Z","depth":"0","parameterNumber":2,"parameterNumberName":"U-component_of_CURRENTS"},"data":[0,0,0,0,0,0,0,0,0,0,0,0,0,0,0,0,0,0,0,0,0,0,0,0,0,0,0,0,0,0,0,0,0,0,0,0,0,0,0,0,0,0,0,0,0,0,0,0,0,0,0,0,0,0,0,0,0,0,0.2689,0.269,0,0.2733,0.2733,0.2734,0.272,0.272,0.2719,0.2719,0.2711,0.2712,0.2712,0,0,0,0,0,0,0,0,0,0,0,0,0,0.2586,0.2587,0.2689,0.269,0.2691,0.2733,0.2733,0.2734,0.272,0.272,0.2719,0.2718,0.2711,0.2712,0.2712,0,0,0,0,0,0,0,0,0,0,0,0,0,0.2627,0.2588,0.2689,0.2692,0.2693,0.2733,0.2733,0.2734,0.2721,0.272,0.2719,0.2718,0.2711,0.2712,0.2712,0.2732,0,0,0.2714,0.2714,0,0,0,0,0,0,0,0,0.2624,0.263,0.2691,0.2692,0.2693,0.2724,0.2694,0.2732,0.2721,0.2706,0.2719,0.2718,0.2714,0.2714,0.272,0.2732,0.2732,0.2714,0.2714,0.2714,0.2714,0,0,0,0,0,0,0,0.2622,0.2628,0.2703,0.2692,0.2694,0.2689,0.2693,0.2701,0.271,0.2707,0.2708,0.2719,0.2713,0.2719,0.2719,0.2732,0.2714,0.2714,0.2714,0.2715,0.2795,0.2796,0,0,0,0,0,0,0.2626,0.2626,0.2702,0.2705,0.266,0.2692,0.2697,0.2712,0.2712,0.2712,0.2719,0.2718,0.2719,0.2719,0.2719,0.2759,0.2714,0.2715,0.2715,0.2793,0.2795,0.2797,0,0,0,0,0,0,0.2623,0.2632,0.27,0.2668,0.2677,0.2695,0.2712,0.2713,0.2725,0.2722,0.272,0.273,0.2718,0.2718,0.274,0.2758,0.2715,0.2715,0.2791,0.2793,0.2796,0.2829,0,0,0,0,0,0,0.262,0.2631,0.2641,0.2669,0.2679,0.2731,0.2713,0.2715,0.2734,0.2733,0.2731,0.2729,0.2717,0.274,0.2741,0.2758,0.2716,0.2788,0.2792,0.2795,0.2825,0.2832,0.2838,0,0,0,0,0,0.2616,0.2634,0.2641,0.2651,0.2694,0.2733,0.2738,0.2744,0.2736,0.2749,0.2751,0.2729,0.2762,0.2742,0.2742,0.276,0.2787,0.2791,0.2795,0.2822,0.2831,0.2838,0,0,0,0,0,0,0.2591,0.2636,0.2644,0.2673,0.2706,0.2732,0.2747,0.2753,0.2765,0.2763,0.2751,0.275,0.2779,0.2772,0.275,0.2797,0.2772,0.2776,0.2793,0.2801,0.2807,0.2815,0.2716,0,0,0,0,0,0.2594,0.262,0.266,0.2686,0.2704,0.2728,0.2743,0.2753,0.2771,0.2775,0.2776,0.2783,0.2798,0.28,0.2814,0.2835,0.2854,0.285,0.2856,0.2862,0.2872,0.291,0.292,0.281,0.281,0.281,0,0,0.259,0.2621,0.2633,0.2683,0.2706,0.274,0.2734,0.2768,0.2791,0.2773,0.28,0.2808,0.2813,0.284,0.2852,0.2832,0.291,0.2867,0.2871,0.2878,0.2915,0.2926,0.2935,0.2813,0.2813,0.2812,0,0,0.2599,0.2627,0.2651,0.2684,0.2731,0.2753,0.2767,0.2803,0.2814,0.2848,0.2843,0.2865,0.2883,0.289,0.2895,0.2949,0.2948,0.2953,0.2981,0.3018,0.3027,0.3035,0.3096,0.3109,0.2948,0.2948,0.2948,0,0.259,0.2629,0.2664,0.2699,0.2725,0.2761,0.2791,0.2818,0.2854,0.2868,0.2862,0.2908,0.2909,0.2942,0.2962,0.2961,0.2992,0.2945,0.3025,0.3033,0.304,0.3101,0.3115,0.295,0.295,0.2949,0.2949,0,0.2618,0.2651,0.2672,0.2728,0.2761,0.2797,0.2842,0.2875,0.2893,0.2913,0.2957,0.2969,0.2992,0.2999,0.2995,0.305,0.3061,0.3032,0.2999,0.3053,0.3115,0.3129,0.2953,0.2952,0.2951,0.2951,0,0,0.2591,0.2672,0.2678,0.2701,0.2778,0.2802,0.286,0.2911,0.2935,0.2978,0.3012,0.3048,0.3055,0.3064,0.3065,0.3095,0.3181,0.309,0.309,0.3143,0.3291,0.333,0.3349,0.3164,0.3166,0.3167,0.3321,0,0.2599,0.2653,0.2699,0.2747,0.2777,0.2834,0.2875,0.2926,0.2969,0.3015,0.3048,0.3083,0.3079,0.3092,0.3128,0.3171,0.3216,0.3144,0.3239,0.3243,0.3263,0.3365,0.3349,0.3487,0.3335,0.3337,0.3339,0,0.2606,0.2643,0.2682,0.2746,0.2763,0.2794,0.2861,0.2907,0.2989,0.3024,0.308,0.3113,0.3187,0.3162,0.3279,0.3235,0.3275,0.3302,0.3308,0.334,0.3308,0.3406,0.3518,0.3506,0.336,0.3358,0.3357,0,0.2553,0.2628,0.2651,0.2676,0.2755,0.2775,0.282,0.2898,0.2954,0.3035,0.3099,0.3164,0.3232,0.3284,0.3378,0.3329,0.3511,0.344,0.3517,0.352,0.3525,0.3526,0.3627,0.3521,0.352,0.352,0.3519,0,0.2539,0.2556,0.2622,0.2632,0.2659,0.2728,0.2771,0.2829,0.2938,0.3006,0.3097,0.318,0.3269,0.3388,0.3422,0.3555,0.3557,0.3562,0.3572,0.354,0.354,0.3542,0.349,0.3526,0.3524,0.3523,0.3522,0,0.2471,0.252,0.2546,0.2612,0.2632,0.2647,0.2758,0.2794,0.2914,0.302,0.3061,0.3238,0.3394,0.3507,0.3621,0.3641,0.3661,0.3761,0.3742,0.3747,0.3761,0.3711,0.3572,0.3481,0.3857,0.3859,0.3861,0,0.2439,0.2446,0.2507,0.2519,0.2545,0.2592,0.2624,0.2754,0.2818,0.3046,0.3095,0.3313,0.3445,0.369,0.3783,0.3907,0.3759,0.3929,0.3816,0.3805,0.3756,0.3491,0.3402,0.3848,0.385,0.3851,0.3852,0,0.2373,0.2392,0.241,0.2442,0.2468,0.2512,0.2583,0.2643,0.2801,0.2935,0.3113,0.325,0.3546,0.3706,0.3916,0.3959,0.3783,0.3955,0.3944,0.3777,0.3493,0.3397,0.3718,0.3863,0.3862,0.3861,0.386,0.386,0.2311,0.231,0.2339,0.2358,0.2387,0.2417,0.2435,0.2544,0.2664,0.285,0.3032,0.3246,0.3601,0.391,0.393,0.4047,0.3859,0.3997,0.3949,0.3689,0.3554,0.392,0.4064,0.4064,0.4064,0.4064,0.4064,0,0.2241,0.225,0.226,0.2279,0.227,0.2326,0.2391,0.2411,0.2511,0.2766,0.2939,0.3361,0.3619,0.3865,0.4146,0.4089,0.3815,0.4012,0.366,0.3581,0.3965,0.3925,0.4047,0.4047,0.4047,0.4047,0.4047,0.4047,0.2207,0.219,0.2196,0.2158,0.2168,0.2146,0.2165,0.2223,0.239,0.2653,0.2927,0.3169,0.3682,0.4099,0.4207,0.4115,0.3797,0.3649,0.3553,0.3909,0.3903,0.3896,0.3851,0.3955,0.3955,0.3053,0.3047,0.3043]},{"header":{"parameterUnit":"m.s-1","parameterCategory":2,"la1":30.2991,"la2":30.254,"lo1":-89.0895,"lo2":-89.0444,"dy":0.0017,"dx":0.0017,"nx":28,"ny":28,"refTime":"2024-03-25T21:00:00:Z","depth":"0","parameterNumber":3,"parameterNumberName":"V-component_of_CURRENTS"},"data":[0,0,0,0,0,0,0,0,0,0,0,0,0,0,0,0,0,0,0,0,0,0,0,0,0,0,0,0,0,0,0,0,0,0,0,0,0,0,0,0,0,0,0,0,0,0,0,0,0,0,0,0,0,0,0,0,0,0,0.0026,0.0025,0,-0.0063,-0.0064,-0.0065,-0.0114,-0.0114,-0.0114,-0.0114,-0.0229,-0.0232,-0.0235,0,0,0,0,0,0,0,0,0,0,0,0,0,0.009,0.0089,0.0026,0.0025,0.0024,-0.0063,-0.0064,-0.0065,-0.0114,-0.0114,-0.0114,-0.0114,-0.0228,-0.0232,-0.0236,0,0,0,0,0,0,0,0,0,0,0,0,0,0.0036,0.0089,0.0026,-0.001,-0.0014,-0.0062,-0.0064,-0.0066,-0.0114,-0.0114,-0.0114,-0.0114,-0.0227,-0.0232,-0.0236,-0.0264,0,0,-0.025,-0.0252,0,0,0,0,0,0,0,0,0.004,0.0034,-0.0004,-0.0008,-0.0012,-0.0076,-0.0084,-0.0133,-0.0114,-0.0078,-0.0114,-0.0114,-0.018,-0.0188,-0.0207,-0.027,-0.0275,-0.0251,-0.0253,-0.0255,-0.0257,0,0,0,0,0,0,0,0.0043,0.0037,-0.0011,-0.0005,-0.001,-0.0043,-0.005,-0.0094,-0.0129,-0.0081,-0.0084,-0.0092,-0.0182,-0.0202,-0.021,-0.0276,-0.025,-0.0254,-0.0257,-0.0259,-0.0354,-0.0353,0,0,0,0,0,0,0.0061,0.0041,-0.0008,-0.0013,0.0016,-0.0044,-0.0052,-0.0057,-0.0128,-0.0139,-0.0092,-0.0094,-0.0194,-0.0204,-0.0214,-0.0227,-0.0255,-0.026,-0.0262,-0.0354,-0.0354,-0.0353,0,0,0,0,0,0,0.0062,0.0057,-0.0005,0.0013,0.0003,-0.0044,-0.005,-0.0059,-0.0074,-0.0136,-0.0147,-0.0097,-0.0195,-0.0207,-0.0244,-0.0233,-0.0262,-0.0266,-0.0354,-0.0354,-0.0354,-0.0269,0,0,0,0,0,0,0.0065,0.0059,0.0061,0.0014,0.0003,-0.0024,-0.005,-0.006,-0.0078,-0.0082,-0.0145,-0.0156,-0.0196,-0.0237,-0.0248,-0.024,-0.0269,-0.0355,-0.0354,-0.0354,-0.0272,-0.0266,-0.0261,0,0,0,0,0,0.0067,0.0075,0.0061,0.0055,0.0007,-0.0023,-0.0032,-0.0067,-0.0078,-0.0082,-0.0122,-0.0153,-0.0242,-0.024,-0.0254,-0.0246,-0.0355,-0.0354,-0.0354,-0.0275,-0.0267,-0.0261,0,0,0,0,0,0,0.0106,0.007,0.0054,0.005,0.002,-0.0031,-0.0036,-0.0061,-0.0096,-0.0097,-0.0155,-0.0168,-0.0196,-0.0234,-0.0231,-0.0273,-0.0302,-0.0304,-0.0238,-0.0231,-0.0225,-0.0208,-0.0273,0,0,0,0,0,0.0116,0.0112,0.007,0.0068,0.0057,0.0012,-0.0005,-0.0028,-0.0065,-0.0081,-0.0124,-0.0168,-0.0207,-0.0227,-0.0269,-0.0294,-0.0324,-0.0298,-0.0292,-0.0287,-0.0282,-0.0317,-0.0313,-0.0352,-0.0352,-0.0352,0,0,0.013,0.011,0.0107,0.0076,0.005,0.0044,0.0002,-0.0015,-0.0019,-0.0088,-0.0105,-0.0152,-0.0209,-0.0234,-0.025,-0.0263,-0.0289,-0.0286,-0.0281,-0.0279,-0.0316,-0.0312,-0.0308,-0.0351,-0.0351,-0.0351,0,0,0.0163,0.0141,0.015,0.013,0.01,0.0072,0.0072,0.0027,0.0008,-0.0019,-0.0065,-0.0103,-0.0162,-0.02,-0.0227,-0.0216,-0.0258,-0.0227,-0.0184,-0.0216,-0.0213,-0.0211,-0.0229,-0.0229,-0.0223,-0.0223,-0.0223,0,0.0184,0.0189,0.0148,0.0154,0.0147,0.0092,0.0104,0.0074,0.0024,0.0011,-0.0011,-0.0095,-0.0146,-0.0176,-0.0173,-0.0202,-0.0222,-0.0202,-0.0207,-0.0206,-0.0205,-0.0224,-0.0226,-0.0219,-0.0219,-0.0219,-0.022,0,0.0222,0.0227,0.0232,0.0223,0.0209,0.0209,0.0168,0.015,0.012,0.0086,0.0049,-0.0022,-0.0071,-0.0093,-0.0132,-0.0149,-0.0164,-0.0194,-0.022,-0.0195,-0.0218,-0.0221,-0.0213,-0.0214,-0.0215,-0.0216,0,0,0.0267,0.0262,0.0264,0.0277,0.0247,0.0242,0.0236,0.0211,0.0213,0.0153,0.0149,0.007,0.0029,-0.0005,-0.0061,-0.0094,-0.0106,-0.0133,-0.0137,-0.0141,-0.0163,-0.0182,-0.0187,-0.0133,-0.0133,-0.0134,-0.0176,0,0.0311,0.0345,0.0326,0.0358,0.0373,0.0329,0.0331,0.0301,0.0264,0.0243,0.0164,0.0135,0.0064,0.0046,0.0,-0.0083,-0.0111,-0.0091,-0.0196,-0.0199,-0.021,-0.0191,-0.0147,-0.0182,-0.0179,-0.018,-0.018,0,0.0356,0.0374,0.0415,0.0433,0.0436,0.0441,0.0435,0.0428,0.0378,0.0352,0.03,0.0241,0.0175,0.0117,-0.0005,0.0014,-0.0064,-0.0129,-0.0133,-0.0183,-0.0223,-0.0211,-0.0188,-0.0344,-0.0184,-0.0184,-0.0184,0,0.041,0.0438,0.0476,0.0479,0.0485,0.0494,0.049,0.0458,0.0472,0.0418,0.0431,0.0327,0.0294,0.0175,0.0037,0.0019,-0.0088,-0.0134,-0.0221,-0.0223,-0.0225,-0.0226,-0.0358,-0.0209,-0.0209,-0.0209,-0.0209,0,0.0464,0.0494,0.0503,0.0523,0.0576,0.0549,0.0593,0.0571,0.0562,0.06,0.0493,0.0508,0.0309,0.0224,0.0079,-0.0071,-0.0058,-0.0207,-0.0236,-0.0193,-0.0192,-0.0361,-0.0478,-0.021,-0.021,-0.021,-0.021,0,0.0512,0.0518,0.0566,0.0587,0.0603,0.0633,0.0677,0.0705,0.0687,0.0734,0.0731,0.0646,0.0531,0.0341,0.0151,0.0001,-0.025,-0.0206,-0.0137,-0.0158,-0.0406,-0.0519,-0.0703,-0.0797,-0.0318,-0.0319,-0.032,0,0.0539,0.0568,0.062,0.0659,0.067,0.0718,0.0758,0.0762,0.0806,0.0834,0.0871,0.0782,0.0753,0.0463,0.0176,-0.0076,-0.0255,-0.022,-0.0263,-0.0409,-0.0558,-0.0633,-0.0704,-0.0225,-0.0225,-0.0225,-0.0225,0,0.0591,0.0605,0.0644,0.0729,0.0781,0.0857,0.0916,0.098,0.1001,0.106,0.112,0.1106,0.0838,0.0608,0.0241,0.0039,-0.0346,-0.0226,-0.0396,-0.0513,-0.0586,-0.069,-0.0203,-0.0223,-0.0223,-0.0223,-0.0223,-0.0223,0.0627,0.0667,0.0723,0.0804,0.0877,0.0981,0.1061,0.1143,0.1252,0.1369,0.1332,0.1398,0.1043,0.0552,0.0219,-0.0312,-0.0354,-0.0453,-0.058,-0.0642,-0.0737,-0.0245,-0.0292,-0.0293,-0.0293,-0.0294,-0.0294,0,0.0674,0.0722,0.0798,0.0899,0.0993,0.1024,0.1162,0.1258,0.141,0.156,0.1638,0.1613,0.1118,0.0612,-0.0103,-0.0532,-0.0722,-0.0788,-0.0882,-0.0942,-0.0503,-0.0502,-0.0573,-0.0573,-0.0573,-0.0573,-0.0573,-0.0573,0.07,0.0778,0.0818,0.0979,0.1059,0.1203,0.1294,0.1446,0.1599,0.1851,0.201,0.2088,0.1834,0.0363,-0.0575,-0.0847,-0.1173,-0.1262,-0.1445,-0.1136,-0.1114,-0.1092,-0.1117,-0.1316,-0.1318,-0.1791,-0.1796,-0.18]}],[{"header":{"parameterUnit":"m.s-1","parameterCategory":2,"la1":30.2991,"la2":30.254,"lo1":-89.0895,"lo2":-89.0444,"dy":0.0017,"dx":0.0017,"nx":28,"ny":28,"refTime":"2024-03-25T21:00:00:Z","depth":"2","parameterNumber":2,"parameterNumberName":"U-component_of_CURRENTS"},"data":[0,0,0,0,0,0,0,0,0,0,0,0,0,0,0,0,0,0,0,0,0,0,0,0,0,0,0,0,0,0,0,0,0,0,0,0,0,0,0,0,0,0,0,0,0,0,0,0,0,0,0,0,0,0,0,0,0,0,0.2615,0.2616,0,0.266,0.2661,0.2661,0.2654,0.2654,0.2653,0.2653,0.2655,0.2655,0.2655,0,0,0,0,0,0,0,0,0,0,0,0,0,0.2518,0.252,0.2615,0.2616,0.2617,0.266,0.2661,0.2661,0.2654,0.2654,0.2653,0.2653,0.2654,0.2655,0.2655,0,0,0,0,0,0,0,0,0,0,0,0,0,0.2558,0.2521,0.2615,0.2621,0.2623,0.266,0.2661,0.2661,0.2654,0.2654,0.2653,0.2652,0.2654,0.2655,0.2656,0.2673,0,0,0.2658,0.2658,0,0,0,0,0,0,0,0,0.2556,0.2562,0.262,0.2621,0.2623,0.2654,0.2627,0.2664,0.2654,0.2639,0.2653,0.2652,0.2653,0.2654,0.266,0.2673,0.2674,0.2658,0.2658,0.2658,0.2659,0,0,0,0,0,0,0,0.2553,0.256,0.263,0.2621,0.2623,0.2621,0.2625,0.2634,0.2646,0.264,0.264,0.2651,0.2653,0.2659,0.2659,0.2674,0.2658,0.2658,0.2659,0.2659,0.2742,0.2744,0,0,0,0,0,0,0.2556,0.2557,0.2628,0.2631,0.2591,0.2623,0.2628,0.2642,0.2646,0.2648,0.2652,0.2651,0.2658,0.2659,0.2659,0.2703,0.2658,0.2659,0.266,0.274,0.2743,0.2745,0,0,0,0,0,0,0.2554,0.2562,0.2627,0.2598,0.2606,0.2626,0.2641,0.2643,0.2657,0.2657,0.2656,0.2665,0.2658,0.2658,0.2683,0.2702,0.2659,0.266,0.2738,0.2741,0.2744,0.2777,0,0,0,0,0,0,0.2551,0.2561,0.2572,0.2598,0.2608,0.2658,0.2642,0.2645,0.2666,0.2665,0.2668,0.2667,0.2657,0.2682,0.2684,0.2703,0.2661,0.2736,0.274,0.2743,0.2773,0.278,0.2786,0,0,0,0,0,0.2547,0.2564,0.2572,0.2581,0.2622,0.2659,0.2664,0.2673,0.2667,0.2681,0.2686,0.2667,0.2705,0.2684,0.2686,0.2705,0.2734,0.2739,0.2742,0.277,0.2779,0.2786,0,0,0,0,0,0,0.2526,0.2566,0.2575,0.2603,0.2634,0.2659,0.2675,0.2682,0.2697,0.2697,0.2688,0.2688,0.272,0.2714,0.2692,0.2743,0.2718,0.2722,0.2739,0.2746,0.2753,0.2759,0.2661,0,0,0,0,0,0.2528,0.2553,0.259,0.2615,0.2632,0.2656,0.2672,0.2683,0.2702,0.2708,0.2712,0.2721,0.2739,0.2743,0.2758,0.2781,0.2798,0.2798,0.2804,0.2809,0.2818,0.2856,0.2866,0.2758,0.2758,0.2758,0,0,0.2525,0.2554,0.2566,0.2612,0.2636,0.2668,0.2664,0.2698,0.2722,0.2706,0.2737,0.2747,0.2754,0.2783,0.2796,0.2777,0.2855,0.2814,0.2818,0.2825,0.2861,0.2871,0.288,0.2761,0.276,0.276,0,0,0.2534,0.2561,0.2584,0.2615,0.2662,0.2683,0.2696,0.2733,0.2745,0.2782,0.2779,0.2803,0.2825,0.2834,0.2839,0.2893,0.2893,0.2899,0.2927,0.2963,0.2972,0.2979,0.3037,0.305,0.2894,0.2894,0.2894,0,0.2528,0.2563,0.2596,0.263,0.2656,0.2692,0.272,0.2748,0.2786,0.28,0.2797,0.2848,0.285,0.2884,0.2905,0.2905,0.2935,0.2891,0.297,0.2978,0.2985,0.3042,0.3056,0.2896,0.2896,0.2896,0.2896,0,0.2553,0.2585,0.2605,0.2659,0.2691,0.2726,0.2771,0.2805,0.2826,0.2846,0.2893,0.2907,0.2934,0.2942,0.2939,0.2994,0.3004,0.2977,0.2945,0.2998,0.3055,0.3069,0.2899,0.2899,0.2898,0.2898,0,0,0.2528,0.2605,0.2611,0.2634,0.2709,0.2732,0.279,0.284,0.2866,0.2911,0.2947,0.2985,0.2995,0.3005,0.3008,0.3037,0.3121,0.3033,0.3034,0.3082,0.3228,0.3254,0.3271,0.3106,0.3108,0.311,0.3255,0,0.2535,0.2588,0.2631,0.2678,0.2707,0.2764,0.2805,0.2857,0.2901,0.2948,0.2983,0.302,0.3018,0.3034,0.3069,0.3112,0.3155,0.3086,0.3177,0.3181,0.319,0.3287,0.3033,0.3142,0.3268,0.327,0.3271,0,0.2541,0.2577,0.2616,0.2679,0.2696,0.2727,0.2796,0.2842,0.2923,0.2959,0.3017,0.305,0.3125,0.3102,0.3215,0.3175,0.3212,0.3239,0.3244,0.3264,0.3232,0.3107,0.3161,0.3294,0.3292,0.329,0.3289,0,0.2491,0.2564,0.2588,0.2612,0.2689,0.2712,0.2757,0.2835,0.289,0.2972,0.3035,0.3101,0.317,0.322,0.3311,0.3265,0.3439,0.3372,0.3434,0.3437,0.3238,0.322,0.3449,0.3449,0.3448,0.3448,0.3447,0,0.2477,0.2495,0.256,0.2572,0.26,0.2668,0.2714,0.2772,0.2879,0.2945,0.3036,0.3117,0.3205,0.332,0.3353,0.3475,0.3482,0.3476,0.3485,0.3248,0.323,0.336,0.3348,0.3453,0.3452,0.3451,0.345,0,0.2412,0.246,0.2486,0.2554,0.2575,0.2592,0.2703,0.2739,0.2858,0.2961,0.3002,0.3174,0.3323,0.3431,0.3541,0.3555,0.3634,0.3664,0.3406,0.3383,0.3591,0.3579,0.3737,0.374,0.3742,0.3743,0.3745,0,0.2381,0.2388,0.2451,0.2464,0.2491,0.2541,0.2574,0.2702,0.2763,0.2986,0.3033,0.3242,0.3362,0.3591,0.3644,0.3749,0.3743,0.356,0.3419,0.3633,0.3625,0.361,0.3596,0.317,0.3167,0.3164,0.3162,0,0.2317,0.2337,0.2356,0.239,0.2418,0.2462,0.2533,0.259,0.2745,0.2872,0.3042,0.3169,0.3417,0.3439,0.3616,0.3613,0.3521,0.3511,0.3799,0.3152,0.3114,0.3101,0.3102,0.3136,0.3139,0.3141,0.3142,0.3143,0.2258,0.2257,0.2287,0.2309,0.2339,0.2368,0.2386,0.2485,0.2597,0.2749,0.2929,0.3052,0.3185,0.3338,0.3305,0.3292,0.3512,0.3343,0.3344,0.335,0.3274,0.3243,0.3277,0.328,0.3283,0.3285,0.3288,0,0.2187,0.22,0.2212,0.2232,0.2221,0.228,0.2342,0.2344,0.2427,0.2609,0.2749,0.2667,0.2772,0.2886,0.2864,0.2936,0.2808,0.2797,0.259,0.2623,0.265,0.2528,0.2338,0.2334,0.233,0.2327,0,0,0.2152,0.2135,0.2142,0.2105,0.212,0.2093,0.211,0.2134,0.2238,0.2293,0.2368,0.2635,0.2834,0.2529,0.2551,0.2436,0.2476,0.2342,0.3124,0.2915,0.2935,0.3019,0.2879,0,0,0,0,0]},{"header":{"parameterUnit":"m.s-1","parameterCategory":2,"la1":30.2991,"la2":30.254,"lo1":-89.0895,"lo2":-89.0444,"dy":0.0017,"dx":0.0017,"nx":28,"ny":28,"refTime":"2024-03-25T21:00:00:Z","depth":"2","parameterNumber":3,"parameterNumberName":"V-component_of_CURRENTS"},"data":[0,0,0,0,0,0,0,0,0,0,0,0,0,0,0,0,0,0,0,0,0,0,0,0,0,0,0,0,0,0,0,0,0,0,0,0,0,0,0,0,0,0,0,0,0,0,0,0,0,0,0,0,0,0,0,0,0,0,-0.0056,-0.0057,0,-0.0141,-0.0142,-0.0143,-0.0191,-0.0191,-0.0191,-0.0191,-0.0299,-0.0302,-0.0305,0,0,0,0,0,0,0,0,0,0,0,0,0,0.0009,0.0008,-0.0056,-0.0057,-0.0058,-0.0141,-0.0142,-0.0143,-0.0191,-0.0191,-0.0191,-0.0191,-0.0298,-0.0301,-0.0305,0,0,0,0,0,0,0,0,0,0,0,0,0,-0.0043,0.0008,-0.0056,-0.0091,-0.0095,-0.014,-0.0142,-0.0143,-0.0191,-0.0191,-0.0191,-0.0191,-0.0297,-0.0301,-0.0305,-0.033,0,0,-0.0318,-0.032,0,0,0,0,0,0,0,0,-0.004,-0.0045,-0.0085,-0.0089,-0.0093,-0.0154,-0.0158,-0.0207,-0.0191,-0.0156,-0.0191,-0.0191,-0.0252,-0.026,-0.0277,-0.0335,-0.034,-0.0319,-0.0321,-0.0323,-0.0324,0,0,0,0,0,0,0,-0.0036,-0.0042,-0.0091,-0.0086,-0.0091,-0.0121,-0.0128,-0.0168,-0.0204,-0.0159,-0.0162,-0.0169,-0.0255,-0.0273,-0.028,-0.0341,-0.0319,-0.0322,-0.0325,-0.0327,-0.0412,-0.0412,0,0,0,0,0,0,-0.002,-0.0038,-0.0088,-0.0093,-0.0065,-0.0122,-0.013,-0.0135,-0.0203,-0.0213,-0.0169,-0.0171,-0.0265,-0.0275,-0.0284,-0.0295,-0.0323,-0.0327,-0.0329,-0.0412,-0.0412,-0.0412,0,0,0,0,0,0,-0.0018,-0.0024,-0.0085,-0.0067,-0.0077,-0.0122,-0.0129,-0.0137,-0.0151,-0.021,-0.0221,-0.0174,-0.0266,-0.0278,-0.0311,-0.03,-0.0329,-0.0333,-0.0413,-0.0412,-0.0412,-0.0331,0,0,0,0,0,0,-0.0016,-0.0022,-0.002,-0.0066,-0.0077,-0.0102,-0.0129,-0.0139,-0.0155,-0.0159,-0.0218,-0.0229,-0.0267,-0.0304,-0.0315,-0.0307,-0.0336,-0.0413,-0.0413,-0.0412,-0.0334,-0.0328,-0.0323,0,0,0,0,0,-0.0013,-0.0005,-0.0019,-0.0025,-0.0072,-0.0101,-0.011,-0.0144,-0.0155,-0.0157,-0.0196,-0.0226,-0.0309,-0.0308,-0.0321,-0.0313,-0.0413,-0.0413,-0.0412,-0.0337,-0.0329,-0.0323,0,0,0,0,0,0,0.0026,-0.0011,-0.0027,-0.003,-0.0059,-0.0109,-0.0112,-0.0137,-0.017,-0.0171,-0.0226,-0.024,-0.0265,-0.0301,-0.0298,-0.0336,-0.0365,-0.0367,-0.0303,-0.0297,-0.0291,-0.0276,-0.034,0,0,0,0,0,0.0037,0.0032,-0.0009,-0.0011,-0.0022,-0.0066,-0.0081,-0.0104,-0.014,-0.0154,-0.0195,-0.0237,-0.0274,-0.0293,-0.0332,-0.0354,-0.0384,-0.0358,-0.0352,-0.0347,-0.0343,-0.0378,-0.0375,-0.041,-0.041,-0.041,0,0,0.0051,0.0031,0.0028,-0.0003,-0.0028,-0.0033,-0.0075,-0.009,-0.0095,-0.0161,-0.0177,-0.022,-0.0276,-0.0299,-0.0313,-0.0326,-0.035,-0.0346,-0.0341,-0.034,-0.0377,-0.0374,-0.0371,-0.0409,-0.0409,-0.0409,0,0,0.0084,0.0062,0.0072,0.0053,0.0023,-0.0005,-0.0004,-0.0048,-0.0066,-0.0091,-0.0136,-0.0172,-0.0227,-0.0264,-0.029,-0.0278,-0.032,-0.0288,-0.0247,-0.028,-0.0277,-0.0275,-0.0296,-0.0296,-0.0284,-0.0283,-0.0283,0,0.0105,0.0109,0.007,0.0076,0.0069,0.0015,0.0027,-0.0002,-0.005,-0.0063,-0.0082,-0.0163,-0.0211,-0.0241,-0.0238,-0.0265,-0.0285,-0.0265,-0.0271,-0.027,-0.0269,-0.0291,-0.0292,-0.028,-0.028,-0.028,-0.0281,0,0.0142,0.0147,0.0153,0.0142,0.0129,0.013,0.0089,0.0073,0.0044,0.0011,-0.0025,-0.0092,-0.0139,-0.0159,-0.0197,-0.0215,-0.023,-0.0259,-0.0284,-0.0261,-0.0285,-0.0288,-0.0274,-0.0275,-0.0276,-0.0277,0,0,0.0186,0.0182,0.0184,0.0195,0.0167,0.0162,0.0155,0.0131,0.0131,0.0075,0.007,-0.0005,-0.0045,-0.0077,-0.013,-0.0164,-0.0178,-0.0201,-0.0205,-0.0212,-0.0238,-0.0254,-0.0259,-0.0203,-0.0204,-0.0204,-0.0252,0,0.0229,0.0261,0.0243,0.0274,0.0288,0.0245,0.0247,0.0217,0.0181,0.016,0.0084,0.0056,-0.0011,-0.0027,-0.0073,-0.0154,-0.0184,-0.0162,-0.0268,-0.0271,-0.0281,-0.0263,-0.0238,-0.0279,-0.0255,-0.0255,-0.0256,0,0.0272,0.0289,0.0329,0.0346,0.0349,0.0355,0.0348,0.034,0.029,0.0265,0.0215,0.0157,0.0092,0.0038,-0.0084,-0.0064,-0.0141,-0.0205,-0.0208,-0.0255,-0.0293,-0.0303,-0.0286,-0.0262,-0.0261,-0.0261,-0.026,0,0.0323,0.035,0.0388,0.0391,0.0397,0.0405,0.0402,0.0369,0.0382,0.0329,0.0341,0.0239,0.0208,0.009,-0.0046,-0.0062,-0.0171,-0.0214,-0.03,-0.0301,-0.0318,-0.0321,-0.0291,-0.0291,-0.0291,-0.0291,-0.0291,0,0.0375,0.0405,0.0414,0.0434,0.0486,0.046,0.0502,0.0481,0.0471,0.0506,0.0402,0.0414,0.0221,0.0136,-0.0007,-0.0155,-0.0143,-0.0287,-0.0316,-0.0289,-0.0288,-0.031,-0.0311,-0.0293,-0.0292,-0.0292,-0.0291,0,0.0422,0.0428,0.0475,0.0496,0.0513,0.0542,0.0585,0.0611,0.0594,0.0638,0.0635,0.0548,0.0433,0.0247,0.0058,-0.0087,-0.0239,-0.0291,-0.0241,-0.0263,-0.0357,-0.0354,-0.04,-0.0401,-0.0402,-0.0403,-0.0403,0,0.0448,0.0477,0.0529,0.0567,0.0579,0.0626,0.0665,0.0669,0.071,0.0734,0.0768,0.0677,0.0642,0.0355,0.0073,-0.0176,-0.0217,-0.0325,-0.0366,-0.0346,-0.0369,-0.0365,-0.036,-0.0352,-0.0352,-0.0352,-0.0353,0,0.0498,0.0513,0.0552,0.0636,0.0687,0.076,0.0818,0.0878,0.0897,0.095,0.1002,0.0982,0.0713,0.046,0.0101,-0.0082,-0.0292,-0.0335,-0.0324,-0.0328,-0.0305,-0.0326,-0.0323,-0.0353,-0.0353,-0.0353,-0.0353,-0.0353,0.0534,0.0573,0.0629,0.0709,0.0781,0.088,0.0957,0.1027,0.1128,0.1211,0.118,0.1171,0.0859,0.0418,0.0084,-0.0282,-0.0273,-0.0403,-0.0401,-0.04,-0.0385,-0.0365,-0.0421,-0.0421,-0.0422,-0.0422,-0.0422,0,0.0576,0.0626,0.0701,0.08,0.0887,0.0924,0.1054,0.1124,0.1255,0.1341,0.1391,0.1134,0.0854,0.0499,-0.003,-0.035,-0.0386,-0.0462,-0.0429,-0.0425,-0.0423,-0.0409,-0.0452,-0.0453,-0.0454,-0.0455,0,0,0.06,0.0674,0.0713,0.0867,0.095,0.108,0.1166,0.127,0.136,0.1441,0.1461,0.1425,0.1005,0.0621,0.0171,-0.0132,-0.0209,-0.0205,-0.0147,-0.0053,-0.0046,-0.0358,-0.0329,0,0,0,0,0]}],[{"header":{"parameterUnit":"m.s-1","parameterCategory":2,"la1":30.2991,"la2":30.254,"lo1":-89.0895,"lo2":-89.0444,"dy":0.0017,"dx":0.0017,"nx":28,"ny":28,"refTime":"2024-03-25T21:00:00:Z","depth":"4","parameterNumber":2,"parameterNumberName":"U-component_of_CURRENTS"},"data":[0,0,0,0,0,0,0,0,0,0,0,0,0,0,0,0,0,0,0,0,0,0,0,0,0,0,0,0,0,0,0,0,0,0,0,0,0,0,0,0,0,0,0,0,0,0,0,0,0,0,0,0,0,0,0,0,0,0,0.1679,0.168,0,0.1756,0.1756,0.1757,0.1816,0.1817,0.1818,0.1818,0.1922,0.1924,0.1926,0,0,0,0,0,0,0,0,0,0,0,0,0,0.1604,0.1605,0.1679,0.168,0.1681,0.1755,0.1756,0.1757,0.1816,0.1817,0.1818,0.1819,0.1921,0.1924,0.1926,0,0,0,0,0,0,0,0,0,0,0,0,0,0.1653,0.1605,0.1679,0.172,0.1725,0.1755,0.1756,0.1758,0.1816,0.1817,0.1818,0.1819,0.192,0.1923,0.1927,0.1926,0,0,0.1936,0.1938,0,0,0,0,0,0,0,0,0.165,0.1656,0.1713,0.1718,0.1723,0.1778,0.1768,0.1816,0.1816,0.178,0.1818,0.1819,0.1876,0.1883,0.1893,0.1931,0.1936,0.1937,0.1939,0.194,0.1941,0,0,0,0,0,0,0,0.1647,0.1653,0.1708,0.1714,0.172,0.1742,0.175,0.1777,0.1821,0.1783,0.1788,0.1798,0.1879,0.189,0.1896,0.1937,0.1937,0.1939,0.1941,0.1943,0.209,0.2092,0,0,0,0,0,0,0.1637,0.1649,0.1706,0.1711,0.1689,0.1743,0.1751,0.1759,0.1821,0.1831,0.1797,0.1801,0.1884,0.1893,0.19,0.1999,0.194,0.1943,0.1945,0.2088,0.209,0.2092,0,0,0,0,0,0,0.1635,0.1642,0.1703,0.1683,0.1692,0.1743,0.1751,0.176,0.1807,0.1831,0.1842,0.184,0.1885,0.1896,0.196,0.2,0.1944,0.1947,0.2085,0.2089,0.2091,0.2135,0,0,0,0,0,0,0.1633,0.164,0.1663,0.1682,0.1693,0.1744,0.175,0.176,0.181,0.1816,0.1871,0.1879,0.1887,0.1955,0.1963,0.2003,0.195,0.2083,0.2087,0.209,0.2131,0.2139,0.2146,0,0,0,0,0,0.163,0.165,0.1664,0.1672,0.1716,0.1745,0.1753,0.1791,0.1811,0.1837,0.1879,0.1879,0.1985,0.1959,0.1968,0.201,0.2081,0.2086,0.209,0.2128,0.2138,0.2146,0,0,0,0,0,0,0.1633,0.1658,0.1674,0.1703,0.1734,0.1756,0.1791,0.1811,0.1863,0.1882,0.1902,0.1914,0.1986,0.1993,0.1965,0.2065,0.2034,0.204,0.206,0.2069,0.2077,0.2078,0.1952,0,0,0,0,0,0.1642,0.1666,0.169,0.1719,0.1737,0.177,0.1796,0.1819,0.1857,0.1883,0.192,0.1964,0.2005,0.2034,0.2069,0.2121,0.2132,0.2155,0.2163,0.2169,0.2178,0.2219,0.2231,0.2107,0.2107,0.2107,0,0,0.1652,0.1671,0.1686,0.1723,0.1752,0.1782,0.179,0.1837,0.1873,0.1885,0.1963,0.1995,0.2026,0.2087,0.212,0.2102,0.2214,0.2175,0.218,0.2185,0.2225,0.2237,0.2248,0.211,0.2109,0.2109,0,0,0.1668,0.1702,0.1722,0.1751,0.1798,0.1818,0.1839,0.1883,0.1921,0.1986,0.2008,0.2064,0.2129,0.2156,0.2175,0.2246,0.2253,0.2266,0.2305,0.2346,0.2356,0.2365,0.2406,0.2418,0.2268,0.2269,0.2269,0,0.1682,0.1708,0.1736,0.1763,0.1795,0.1837,0.1869,0.1909,0.1973,0.2009,0.2023,0.2132,0.2159,0.2224,0.2255,0.2263,0.2289,0.2265,0.2354,0.2363,0.2372,0.2412,0.2425,0.2271,0.2271,0.2271,0.227,0,0.1699,0.1737,0.1757,0.1803,0.1841,0.1881,0.1929,0.1986,0.2039,0.2074,0.2167,0.2206,0.227,0.229,0.2298,0.2376,0.2378,0.2357,0.2326,0.2387,0.2425,0.2438,0.2275,0.2274,0.2273,0.2273,0,0,0.1678,0.1752,0.1763,0.1796,0.1869,0.1896,0.1973,0.204,0.2095,0.2168,0.2239,0.2314,0.2346,0.2372,0.2392,0.2429,0.2515,0.2429,0.243,0.2461,0.2619,0.2486,0.2487,0.2514,0.2516,0.2518,0.2625,0,0.1686,0.1737,0.1778,0.1844,0.1876,0.1947,0.2008,0.2081,0.2152,0.2232,0.2291,0.2367,0.2374,0.2418,0.246,0.2507,0.255,0.2489,0.2564,0.2566,0.2432,0.2497,0.2525,0.2635,0.2638,0.264,0.2641,0,0.1677,0.1719,0.1777,0.1866,0.1889,0.1941,0.2052,0.2113,0.2226,0.2284,0.2372,0.2422,0.2517,0.2498,0.2614,0.2581,0.2613,0.2634,0.2638,0.2505,0.2456,0.2561,0.2664,0.2662,0.266,0.2659,0.2657,0,0.1628,0.1716,0.1766,0.1797,0.19,0.1956,0.2025,0.2136,0.2207,0.233,0.2402,0.2496,0.2579,0.2628,0.2705,0.2671,0.2817,0.2764,0.2672,0.2664,0.273,0.2719,0.2835,0.2835,0.2835,0.2834,0.2834,0,0.1597,0.1642,0.1754,0.1779,0.1855,0.1941,0.2036,0.2116,0.2246,0.2323,0.2435,0.251,0.262,0.2717,0.2743,0.2763,0.2856,0.2694,0.2684,0.2749,0.2739,0.274,0.2727,0.2838,0.2837,0.2837,0.2836,0,0.1523,0.1597,0.1661,0.1784,0.1831,0.1888,0.2046,0.2105,0.2246,0.2357,0.2408,0.257,0.2682,0.278,0.2876,0.2813,0.2835,0.2818,0.2916,0.2907,0.2643,0.2632,0.2699,0.2695,0.2692,0.269,0.2687,0,0.1483,0.1509,0.1649,0.1695,0.1757,0.1864,0.1928,0.2085,0.2149,0.2367,0.2402,0.2583,0.2668,0.2712,0.2811,0.2857,0.2825,0.2815,0.2686,0.2646,0.263,0.2624,0.2618,0.2682,0.2681,0.2681,0.268,0,0.1408,0.1473,0.1528,0.1626,0.1705,0.1783,0.1895,0.1935,0.2103,0.2258,0.2342,0.2414,0.2545,0.2616,0.2696,0.2712,0.2798,0.278,0.2784,0.2663,0.2627,0.2612,0.261,0.2669,0.267,0.2671,0.2672,0,0.1356,0.138,0.1468,0.1539,0.1631,0.1673,0.1747,0.1828,0.1919,0.2144,0.2166,0.2355,0.2509,0.2545,0.2611,0.2632,0.2572,0.2463,0.2483,0.2496,0.2382,0.2302,0.2247,0,0,0,0,0,0.1299,0.1319,0.1378,0.1449,0.153,0.1589,0.1708,0.1782,0.1945,0.1947,0.2053,0.2155,0.2257,0.2361,0.2343,0.2531,0.259,0.2499,0.2474,0.2607,0.262,0.2504,0,0,0,0,0,0,0.1262,0.1315,0.1341,0.1354,0.1384,0.1464,0.1532,0.1642,0.1653,0.1825,0.1895,0.2029,0.2168,0.2253,0.2305,0.2337,0.2278,0.262,0.2615,0.26,0.2611,0.2622,0.2507,0,0,0,0,0]},{"header":{"parameterUnit":"m.s-1","parameterCategory":2,"la1":30.2991,"la2":30.254,"lo1":-89.0895,"lo2":-89.0444,"dy":0.0017,"dx":0.0017,"nx":28,"ny":28,"refTime":"2024-03-25T21:00:00:Z","depth":"4","parameterNumber":3,"parameterNumberName":"V-component_of_CURRENTS"},"data":[0,0,0,0,0,0,0,0,0,0,0,0,0,0,0,0,0,0,0,0,0,0,0,0,0,0,0,0,0,0,0,0,0,0,0,0,0,0,0,0,0,0,0,0,0,0,0,0,0,0,0,0,0,0,0,0,0,0,-0.0108,-0.0109,0,-0.0163,-0.0164,-0.0164,-0.0211,-0.0212,-0.0213,-0.0213,-0.0289,-0.0291,-0.0292,0,0,0,0,0,0,0,0,0,0,0,0,0,-0.006,-0.0061,-0.0108,-0.0109,-0.011,-0.0163,-0.0164,-0.0164,-0.0211,-0.0212,-0.0213,-0.0213,-0.0289,-0.029,-0.0292,0,0,0,0,0,0,0,0,0,0,0,0,0,-0.0094,-0.0061,-0.0108,-0.014,-0.0143,-0.0163,-0.0164,-0.0164,-0.0211,-0.0212,-0.0213,-0.0214,-0.0288,-0.029,-0.0292,-0.029,0,0,-0.0299,-0.03,0,0,0,0,0,0,0,0,-0.0092,-0.0096,-0.0134,-0.0137,-0.0141,-0.0181,-0.0175,-0.0208,-0.0211,-0.0185,-0.0213,-0.0214,-0.0254,-0.026,-0.0268,-0.0294,-0.0297,-0.03,-0.0301,-0.0302,-0.0303,0,0,0,0,0,0,0,-0.009,-0.0094,-0.013,-0.0135,-0.0139,-0.0156,-0.0162,-0.0181,-0.0215,-0.0188,-0.0191,-0.0197,-0.0257,-0.0265,-0.027,-0.0298,-0.03,-0.0302,-0.0303,-0.0304,-0.0342,-0.0342,0,0,0,0,0,0,-0.0081,-0.0092,-0.0128,-0.0131,-0.0118,-0.0156,-0.0163,-0.0168,-0.0214,-0.0222,-0.0196,-0.0199,-0.0261,-0.0267,-0.0273,-0.0279,-0.0302,-0.0304,-0.0305,-0.0342,-0.0342,-0.0341,0,0,0,0,0,0,-0.008,-0.0084,-0.0126,-0.0113,-0.012,-0.0156,-0.0161,-0.0168,-0.018,-0.0221,-0.0229,-0.0202,-0.0262,-0.027,-0.0289,-0.0282,-0.0305,-0.0307,-0.0343,-0.0342,-0.0342,-0.0288,0,0,0,0,0,0,-0.0079,-0.0083,-0.0081,-0.0112,-0.012,-0.0131,-0.0161,-0.0169,-0.0183,-0.0187,-0.0228,-0.0236,-0.0263,-0.0285,-0.0291,-0.0286,-0.0309,-0.0343,-0.0342,-0.0342,-0.0291,-0.0286,-0.0282,0,0,0,0,0,-0.0077,-0.0067,-0.0081,-0.0085,-0.0117,-0.013,-0.0135,-0.0165,-0.0182,-0.018,-0.0211,-0.0235,-0.0285,-0.0287,-0.0294,-0.0289,-0.0343,-0.0343,-0.0342,-0.0292,-0.0287,-0.0282,0,0,0,0,0,0,-0.0045,-0.0072,-0.0088,-0.0088,-0.0106,-0.0138,-0.0138,-0.016,-0.0183,-0.0188,-0.023,-0.0239,-0.0255,-0.0277,-0.0277,-0.0298,-0.0319,-0.0319,-0.0279,-0.0274,-0.027,-0.0266,-0.0311,0,0,0,0,0,-0.0036,-0.0038,-0.0067,-0.0067,-0.0073,-0.0105,-0.0114,-0.0134,-0.0159,-0.0171,-0.02,-0.0231,-0.0255,-0.0268,-0.0292,-0.03,-0.0327,-0.0302,-0.0298,-0.0294,-0.0296,-0.0327,-0.0326,-0.0339,-0.0339,-0.0339,0,0,-0.0025,-0.0039,-0.0041,-0.006,-0.0077,-0.0078,-0.0113,-0.0121,-0.0126,-0.0174,-0.0187,-0.0217,-0.0254,-0.0267,-0.0275,-0.0285,-0.0303,-0.0293,-0.029,-0.0294,-0.0326,-0.0325,-0.0324,-0.0338,-0.0338,-0.0338,0,0,0.0002,-0.0014,-0.0006,-0.0016,-0.0036,-0.0055,-0.0055,-0.0085,-0.0101,-0.0115,-0.0153,-0.0179,-0.021,-0.024,-0.0258,-0.0244,-0.028,-0.0249,-0.0225,-0.0254,-0.0254,-0.0253,-0.0277,-0.028,-0.0247,-0.0246,-0.0246,0,0.0016,0.002,-0.0004,0.0002,-0.0002,-0.0041,-0.0032,-0.0051,-0.0084,-0.0095,-0.011,-0.0167,-0.0199,-0.0224,-0.0222,-0.0235,-0.0256,-0.024,-0.0249,-0.0249,-0.025,-0.0275,-0.0278,-0.0244,-0.0244,-0.0244,-0.0245,0,0.0044,0.005,0.0056,0.0049,0.0044,0.0046,0.0018,0.0007,-0.0017,-0.0042,-0.0069,-0.0115,-0.0149,-0.0163,-0.019,-0.021,-0.0223,-0.024,-0.026,-0.0245,-0.0272,-0.0276,-0.024,-0.0241,-0.0242,-0.0242,0,0,0.0068,0.0075,0.0077,0.0086,0.0069,0.0069,0.0063,0.0046,0.0043,0.0003,-0.0005,-0.0058,-0.0088,-0.0111,-0.015,-0.018,-0.0203,-0.0208,-0.0211,-0.0229,-0.0263,-0.0254,-0.0259,-0.0219,-0.022,-0.022,-0.0277,0,0.0096,0.0124,0.0117,0.0142,0.0153,0.0126,0.0128,0.0106,0.008,0.0063,0.0005,-0.0015,-0.0066,-0.0077,-0.0118,-0.0182,-0.0213,-0.0186,-0.0278,-0.0281,-0.0273,-0.0263,-0.0222,-0.0281,-0.0282,-0.0283,-0.0283,0,0.0122,0.0139,0.0172,0.0192,0.0195,0.0203,0.0198,0.0194,0.0156,0.0138,0.0097,0.0054,-0.0002,-0.0039,-0.0147,-0.0126,-0.019,-0.0242,-0.0245,-0.026,-0.028,-0.0302,-0.0291,-0.0291,-0.029,-0.029,-0.0289,0,0.0148,0.0176,0.0207,0.0212,0.0226,0.0236,0.0238,0.0214,0.0226,0.0185,0.0194,0.0108,0.0084,-0.0017,-0.0127,-0.0136,-0.0241,-0.0266,-0.0319,-0.0319,-0.0334,-0.0335,-0.0337,-0.0337,-0.0337,-0.0337,-0.0336,0,0.0176,0.02,0.0224,0.024,0.0284,0.0273,0.0307,0.0295,0.0291,0.0317,0.0238,0.0241,0.009,0.0013,-0.0104,-0.022,-0.0224,-0.0314,-0.0333,-0.0309,-0.0306,-0.0337,-0.0337,-0.0339,-0.0338,-0.0338,-0.0338,0,0.0195,0.021,0.025,0.0281,0.0299,0.0324,0.0371,0.0391,0.0385,0.0416,0.0414,0.0342,0.0239,0.0089,-0.0072,-0.017,-0.0294,-0.0333,-0.0286,-0.0302,-0.0361,-0.0357,-0.0403,-0.0403,-0.0403,-0.0403,-0.0404,0,0.0206,0.023,0.0287,0.0322,0.0339,0.0384,0.042,0.0434,0.0465,0.0483,0.0505,0.0426,0.0358,0.0153,-0.0028,-0.0249,-0.0283,-0.0349,-0.0373,-0.0354,-0.0368,-0.0364,-0.036,-0.0404,-0.0404,-0.0404,-0.0404,0,0.0228,0.0249,0.0283,0.036,0.0408,0.0472,0.0525,0.0563,0.0586,0.0591,0.0599,0.049,0.0374,0.0177,0.0009,-0.0154,-0.0312,-0.0352,-0.0353,-0.0376,-0.0356,-0.0368,-0.0364,-0.0404,-0.0404,-0.0404,-0.0404,0,0.0244,0.0272,0.0324,0.0391,0.0463,0.0537,0.0564,0.0613,0.065,0.0672,0.0672,0.0546,0.0464,0.0228,0.0072,-0.0089,-0.0143,-0.0203,-0.0213,-0.0215,-0.0154,-0.01,-0.0083,0,0,0,0,0,0.0254,0.0289,0.0353,0.0429,0.0505,0.0552,0.0629,0.0648,0.0683,0.0706,0.0696,0.0593,0.0373,0.0272,0.0115,0.0034,-0.0196,-0.0159,-0.0276,-0.0407,-0.0406,-0.0367,0,0,0,0,0,0,0.026,0.0314,0.035,0.0452,0.0512,0.06,0.0652,0.0675,0.0691,0.0705,0.0594,0.0549,0.033,0.0468,0.0113,0.0062,-0.0035,-0.0262,-0.0266,-0.0407,-0.0407,-0.0406,-0.0366,0,0,0,0,0]}]]